sat.trackr.live / text

‹ back to catalog

ONEWEB-0706

NORAD 61611 · 2024-188T

PAYLOAD ACTIVE UNKNOWN

§ Identity

Operator
Country
UK
Launch date
2024-10-20
Launch site
AFWTR
Launch vehicle
Mass (kg)
RCS (m²)

Purposes: comms

External: N2YO · Heavens-Above · Gunter

§ Orbital elements

Epoch: 2026-09-19T15:59:08.841120Z

Period
109.89 min
Inclination
87.8912°
Eccentricity
0.0001201
Mean motion
13.10374972 rev/d
Perigee alt
1,220.8 km
Apogee alt
1,222.6 km
Semi-major
7,599.8 km
B*
-1.5857e-3
RAAN
17.4594°
Arg perigee
109.7411°
Mean anomaly
250.3846°
Rev number
9,575

§ Raw data

ONEWEB-07061 61611U 24188T   26262.66607455 -.00000541  00000+0 -15857-2 0  99942 61611  87.8912  17.4594 0001201 109.7411 250.3846 13.10374972 95750

JSON: /api/v1/satellites/61611 · /tle

For live sub-satellite position, see the globe view (requires WebGL).

§ Visibility from observer

Set your observer location to see the next 7 days of passes ≥ 10°. The values pass through the URL so the page stays shareable.

No JS? Fill the form by hand. The geolocation button needs JavaScript.